Time,TemperatureF,DewpointF,PressureIn,WindDirection,WindDirectionDegrees,WindSpeedMPH,WindSpeedGustMPH,Humidity,HourlyPrecipIn,Conditions,Clouds,dailyrainin,SoftwareType,DateUTC
2013-04-18 00:02:00,22.1,8.4,30.20,NE,45,1.8,2.7,55,0.00,,,0.00,WUHU216HW,2013-04-18 06:02:00,
2013-04-18 00:07:00,22.0,8.2,30.20,NE,45,1.8,2.2,55,0.00,,,0.00,WUHU216HW,2013-04-18 06:07:00,
2013-04-18 00:12:00,22.0,8.2,30.20,ENE,68,1.8,3.1,55,0.00,,,0.00,WUHU216HW,2013-04-18 06:12:00,
2013-04-18 00:17:00,22.0,8.2,30.20,NE,45,2.2,3.1,55,0.00,,,0.00,WUHU216HW,2013-04-18 06:17:00,
2013-04-18 00:22:00,21.8,8.0,30.20,ENE,68,1.6,2.5,55,0.00,,,0.00,WUHU216HW,2013-04-18 06:22:00,
2013-04-18 00:27:00,21.6,7.8,30.20,ENE,68,2.5,3.1,55,0.00,,,0.00,WUHU216HW,2013-04-18 06:27:00,
2013-04-18 00:32:00,21.4,8.0,30.20,NE,45,1.3,3.4,56,0.00,,,0.00,WUHU216HW,2013-04-18 06:32:00,
2013-04-18 00:37:00,21.2,8.3,30.20,NE,45,2.0,3.4,57,0.00,,,0.00,WUHU216HW,2013-04-18 06:37:00,
2013-04-18 00:42:00,21.2,8.7,30.20,NNE,23,3.6,3.6,58,0.00,,,0.00,WUHU216HW,2013-04-18 06:42:00,
2013-04-18 00:47:00,21.1,8.9,30.20,ENE,68,2.9,3.6,59,0.00,,,0.00,WUHU216HW,2013-04-18 06:47:00,
2013-04-18 00:52:00,21.1,8.9,30.20,ENE,68,1.8,3.4,59,0.00,,,0.00,WUHU216HW,2013-04-18 06:52:00,
2013-04-18 00:57:00,21.1,9.4,30.20,ENE,68,2.0,2.9,60,0.00,,,0.00,WUHU216HW,2013-04-18 06:57:00,
2013-04-18 01:02:00,20.9,9.2,30.20,East,90,2.0,3.4,60,0.00,,,0.00,WUHU216HW,2013-04-18 07:02:00,
2013-04-18 01:07:00,20.9,9.2,30.20,ENE,68,3.4,3.4,60,0.00,,,0.00,WUHU216HW,2013-04-18 07:07:00,
2013-04-18 01:12:00,20.7,9.0,30.20,NE,45,3.1,3.4,60,0.00,,,0.00,WUHU216HW,2013-04-18 07:12:00,
2013-04-18 01:17:00,20.5,9.2,30.20,NE,45,3.4,3.8,61,0.00,,,0.00,WUHU216HW,2013-04-18 07:17:00,
2013-04-18 01:22:00,20.5,9.8,30.19,ENE,68,0.0,3.8,63,0.00,,,0.00,WUHU216HW,2013-04-18 07:22:00,
2013-04-18 01:27:00,20.3,9.4,30.19,NE,45,1.3,3.4,62,0.00,,,0.00,WUHU216HW,2013-04-18 07:27:00,
2013-04-18 01:32:00,20.2,9.2,30.19,NE,45,0.7,3.4,62,0.00,,,0.00,WUHU216HW,2013-04-18 07:32:00,
2013-04-18 01:37:00,19.8,8.8,30.20,North,0,1.1,1.8,62,0.00,,,0.00,WUHU216HW,2013-04-18 07:37:00,
2013-04-18 01:42:00,19.6,8.7,30.19,NE,45,1.8,1.8,62,0.00,,,0.00,WUHU216HW,2013-04-18 07:42:00,
2013-04-18 01:47:00,19.4,8.5,30.19,NE,45,0.9,1.8,62,0.00,,,0.00,WUHU216HW,2013-04-18 07:47:00,
2013-04-18 01:52:00,19.4,8.7,30.20,NE,45,0.4,1.3,63,0.00,,,0.00,WUHU216HW,2013-04-18 07:52:00,
2013-04-18 01:57:00,19.3,8.7,30.19,East,90,0.7,2.2,63,0.00,,,0.00,WUHU216HW,2013-04-18 07:57:00,
2013-04-18 02:02:00,19.4,9.1,30.19,East,90,0.7,2.2,64,0.00,,,0.00,WUHU216HW,2013-04-18 08:02:00,
2013-04-18 02:07:00,19.6,8.9,30.19,NE,45,2.2,2.2,63,0.00,,,0.00,WUHU216HW,2013-04-18 08:07:00,
2013-04-18 02:12:00,19.6,8.9,30.19,East,90,1.8,2.2,63,0.00,,,0.00,WUHU216HW,2013-04-18 08:12:00,
2013-04-18 02:17:00,19.4,9.1,30.19,East,90,0.0,2.2,64,0.00,,,0.00,WUHU216HW,2013-04-18 08:17:00,
2013-04-18 02:22:00,19.3,8.9,30.19,NE,45,2.7,2.7,64,0.00,,,0.00,WUHU216HW,2013-04-18 08:22:00,
2013-04-18 02:27:00,19.3,9.3,30.19,NE,45,3.6,3.6,65,0.00,,,0.00,WUHU216HW,2013-04-18 08:27:00,
2013-04-18 02:32:00,19.1,9.1,30.19,NE,45,0.0,4.5,65,0.00,,,0.00,WUHU216HW,2013-04-18 08:32:00,
2013-04-18 02:37:00,19.3,9.6,30.19,NE,45,0.7,4.5,66,0.00,,,0.00,WUHU216HW,2013-04-18 08:37:00,
2013-04-18 02:42:00,19.3,9.3,30.19,NNE,23,1.3,3.1,65,0.00,,,0.00,WUHU216HW,2013-04-18 08:42:00,
2013-04-18 02:47:00,19.3,9.3,30.19,ESE,113,2.5,3.1,65,0.00,,,0.00,WUHU216HW,2013-04-18 08:47:00,
2013-04-18 02:52:00,19.4,9.5,30.19,East,90,1.6,2.5,65,0.00,,,0.00,WUHU216HW,2013-04-18 08:52:00,
2013-04-18 02:57:00,19.3,9.3,30.19,NE,45,2.5,2.5,65,0.00,,,0.00,WUHU216HW,2013-04-18 08:57:00,
2013-04-18 03:02:00,19.1,9.1,30.19,ENE,68,2.7,2.7,65,0.00,,,0.00,WUHU216HW,2013-04-18 09:02:00,
2013-04-18 03:07:00,19.1,9.1,30.19,ESE,113,0.2,2.7,65,0.00,,,0.00,WUHU216HW,2013-04-18 09:07:00,
2013-04-18 03:12:00,19.1,9.5,30.19,NE,45,2.2,2.2,66,0.00,,,0.00,WUHU216HW,2013-04-18 09:12:00,
2013-04-18 03:17:00,19.1,9.5,30.19,NE,45,2.0,3.8,66,0.00,,,0.00,WUHU216HW,2013-04-18 09:17:00,
2013-04-18 03:22:00,19.1,9.8,30.19,NE,45,1.3,3.8,67,0.00,,,0.00,WUHU216HW,2013-04-18 09:22:00,
2013-04-18 03:27:00,19.1,10.2,30.19,NE,45,2.5,3.4,68,0.00,,,0.00,WUHU216HW,2013-04-18 09:27:00,
2013-04-18 03:32:00,18.7,9.5,30.19,NNE,23,1.8,3.6,67,0.00,,,0.00,WUHU216HW,2013-04-18 09:32:00,
2013-04-18 03:37:00,18.5,9.0,30.19,NNE,23,2.5,3.6,66,0.00,,,0.00,WUHU216HW,2013-04-18 09:37:00,
2013-04-18 03:42:00,18.4,9.2,30.19,NE,45,2.5,3.6,67,0.00,,,0.00,WUHU216HW,2013-04-18 09:42:00,
2013-04-18 03:47:00,18.4,9.6,30.19,NNE,23,1.8,3.6,68,0.00,,,0.00,WUHU216HW,2013-04-18 09:47:00,
2013-04-18 03:52:00,18.2,9.4,30.19,NE,45,0.4,2.5,68,0.00,,,0.00,WUHU216HW,2013-04-18 09:52:00,
2013-04-18 03:57:00,18.2,9.4,30.19,NE,45,2.0,2.5,68,0.00,,,0.00,WUHU216HW,2013-04-18 09:57:00,
2013-04-18 04:02:00,18.2,9.4,30.19,NE,45,1.6,2.5,68,0.00,,,0.00,WUHU216HW,2013-04-18 10:02:00,
2013-04-18 04:07:00,18.0,9.6,30.19,NNE,23,1.3,3.8,69,0.00,,,0.00,WUHU216HW,2013-04-18 10:07:00,
2013-04-18 04:12:00,18.0,9.6,30.19,NE,45,2.5,3.8,69,0.00,,,0.00,WUHU216HW,2013-04-18 10:12:00,
2013-04-18 04:17:00,18.2,9.7,30.19,NNE,23,2.2,3.1,69,0.00,,,0.00,WUHU216HW,2013-04-18 10:17:00,
2013-04-18 04:22:00,18.0,9.6,30.19,NE,45,3.1,3.1,69,0.00,,,0.00,WUHU216HW,2013-04-18 10:22:00,
2013-04-18 04:27:00,18.4,9.8,30.19,NE,45,1.8,3.1,69,0.00,,,0.00,WUHU216HW,2013-04-18 10:27:00,
2013-04-18 04:32:00,18.4,9.8,30.19,NE,45,2.9,2.9,69,0.00,,,0.00,WUHU216HW,2013-04-18 10:32:00,
2013-04-18 04:37:00,18.4,9.8,30.19,ENE,68,0.9,4.0,69,0.00,,,0.00,WUHU216HW,2013-04-18 10:37:00,
2013-04-18 04:42:00,18.4,9.8,30.19,NE,45,2.9,4.0,69,0.00,,,0.00,WUHU216HW,2013-04-18 10:42:00,
2013-04-18 04:47:00,18.4,9.8,30.19,NE,45,0.0,3.4,69,0.00,,,0.00,WUHU216HW,2013-04-18 10:47:00,
2013-04-18 04:52:00,18.4,10.4,30.19,North,0,1.1,3.4,71,0.00,,,0.00,WUHU216HW,2013-04-18 10:52:00,
2013-04-18 04:57:00,18.4,10.2,30.19,NNE,23,0.4,2.0,70,0.00,,,0.00,WUHU216HW,2013-04-18 10:57:00,
2013-04-18 05:02:00,18.2,9.7,30.19,NE,45,1.6,2.0,69,0.00,,,0.00,WUHU216HW,2013-04-18 11:02:00,
2013-04-18 05:07:00,17.8,9.4,30.19,NE,45,1.8,2.9,69,0.00,,,0.00,WUHU216HW,2013-04-18 11:07:00,
2013-04-18 05:12:00,17.6,9.2,30.19,NE,45,0.0,2.9,69,0.00,,,0.00,WUHU216HW,2013-04-18 11:12:00,
2013-04-18 05:17:00,17.6,9.2,30.19,East,90,1.1,1.6,69,0.00,,,0.00,WUHU216HW,2013-04-18 11:17:00,
2013-04-18 05:22:00,17.6,9.2,30.19,ENE,68,0.7,1.1,69,0.00,,,0.00,WUHU216HW,2013-04-18 11:22:00,
2013-04-18 05:27:00,17.3,8.8,30.19,NE,45,1.3,1.6,69,0.00,,,0.00,WUHU216HW,2013-04-18 11:27:00,
2013-04-18 05:33:00,17.1,8.6,30.19,NE,45,0.9,1.6,69,0.00,,,0.00,WUHU216HW,2013-04-18 11:33:00,
2013-04-18 05:37:00,17.1,8.6,30.19,NNE,23,3.1,3.6,69,0.00,,,0.00,WUHU216HW,2013-04-18 11:37:00,
2013-04-18 05:43:00,17.1,9.3,30.19,North,0,1.8,3.6,71,0.00,,,0.00,WUHU216HW,2013-04-18 11:43:00,
2013-04-18 05:47:00,17.3,9.5,30.19,North,0,0.0,2.2,71,0.00,,,0.00,WUHU216HW,2013-04-18 11:47:00,
2013-04-18 05:53:00,17.5,9.6,30.19,NNW,338,0.4,2.2,71,0.00,,,0.00,WUHU216HW,2013-04-18 11:53:00,
2013-04-18 05:58:00,17.3,9.5,30.19,NNW,338,1.6,1.6,71,0.00,,,0.00,WUHU216HW,2013-04-18 11:58:00,
2013-04-18 06:03:00,17.1,9.3,30.19,North,0,0.0,1.6,71,0.00,,,0.00,WUHU216HW,2013-04-18 12:03:00,
2013-04-18 06:07:00,16.9,9.1,30.19,West,270,0.4,2.0,71,0.00,,,0.00,WUHU216HW,2013-04-18 12:07:00,
2013-04-18 06:13:00,16.9,9.1,30.19,West,270,0.0,2.2,71,0.00,,,0.00,WUHU216HW,2013-04-18 12:13:00,
2013-04-18 06:18:00,16.9,9.7,30.19,North,0,1.3,2.2,73,0.00,,,0.00,WUHU216HW,2013-04-18 12:18:00,
2013-04-18 06:23:00,16.9,9.7,30.19,North,0,1.1,1.3,73,0.00,,,0.00,WUHU216HW,2013-04-18 12:23:00,
2013-04-18 06:28:00,16.9,9.7,30.19,NW,315,0.2,1.6,73,0.00,,,0.00,WUHU216HW,2013-04-18 12:28:00,
2013-04-18 06:33:00,16.6,9.4,30.19,NNE,23,2.0,2.0,73,0.00,,,0.00,WUHU216HW,2013-04-18 12:33:00,
2013-04-18 06:38:00,16.6,9.4,30.19,NNE,23,1.1,2.2,73,0.00,,,0.00,WUHU216HW,2013-04-18 12:38:00,
2013-04-18 06:43:00,16.4,8.9,30.19,ENE,68,0.0,2.5,72,0.00,,,0.00,WUHU216HW,2013-04-18 12:43:00,
2013-04-18 06:48:00,16.7,9.3,30.19,ENE,68,1.3,2.5,72,0.00,,,0.00,WUHU216HW,2013-04-18 12:48:00,
2013-04-18 06:53:00,16.9,9.5,30.19,East,90,0.4,2.7,72,0.00,,,0.00,WUHU216HW,2013-04-18 12:53:00,
2013-04-18 06:58:00,16.9,9.1,30.19,SW,225,0.0,2.7,71,0.00,,,0.00,WUHU216HW,2013-04-18 12:58:00,
2013-04-18 07:03:00,17.1,9.6,30.19,NW,315,0.2,1.1,72,0.00,,,0.00,WUHU216HW,2013-04-18 13:03:00,
2013-04-18 07:08:00,16.9,9.1,30.19,North,0,0.4,1.6,71,0.00,,,0.00,WUHU216HW,2013-04-18 13:08:00,
2013-04-18 07:13:00,17.1,9.9,30.19,North,0,0.0,1.6,73,0.00,,,0.00,WUHU216HW,2013-04-18 13:13:00,
2013-04-18 07:18:00,17.3,10.1,30.19,North,0,0.2,0.7,73,0.00,,,0.00,WUHU216HW,2013-04-18 13:18:00,
2013-04-18 07:23:00,17.3,10.4,30.19,North,0,0.9,1.6,74,0.00,,,0.00,WUHU216HW,2013-04-18 13:23:00,
2013-04-18 07:28:00,17.5,10.8,30.19,North,0,1.8,2.2,75,0.00,,,0.00,WUHU216HW,2013-04-18 13:28:00,
2013-04-18 07:33:00,17.8,11.4,30.19,North,0,0.4,2.2,76,0.00,,,0.00,WUHU216HW,2013-04-18 13:33:00,
2013-04-18 07:38:00,18.4,11.3,30.19,North,0,1.1,1.8,74,0.00,,,0.00,WUHU216HW,2013-04-18 13:38:00,
2013-04-18 07:43:00,19.3,12.3,30.19,ENE,68,0.9,1.1,74,0.00,,,0.00,WUHU216HW,2013-04-18 13:43:00,
2013-04-18 07:48:00,19.8,12.4,30.19,ESE,113,0.0,1.3,73,0.00,,,0.00,WUHU216HW,2013-04-18 13:48:00,
2013-04-18 07:53:00,20.5,12.9,30.20,ESE,113,0.4,1.6,72,0.00,,,0.00,WUHU216HW,2013-04-18 13:53:00,
2013-04-18 07:58:00,21.2,13.6,30.20,East,90,0.2,1.8,72,0.00,,,0.00,WUHU216HW,2013-04-18 13:58:00,
2013-04-18 08:03:00,22.0,14.0,30.20,East,90,0.0,1.8,71,0.00,,,0.00,WUHU216HW,2013-04-18 14:03:00,
2013-04-18 08:08:00,22.3,14.0,30.20,SSE,158,0.7,2.0,70,0.00,,,0.00,WUHU216HW,2013-04-18 14:08:00,
2013-04-18 08:13:00,22.9,14.2,30.20,SW,225,0.0,2.0,69,0.00,,,0.00,WUHU216HW,2013-04-18 14:13:00,
2013-04-18 08:18:00,23.2,14.6,30.20,ESE,113,1.8,1.8,69,0.00,,,0.00,WUHU216HW,2013-04-18 14:18:00,
2013-04-18 08:23:00,23.6,14.9,30.20,SE,135,0.7,1.8,69,0.00,,,0.00,WUHU216HW,2013-04-18 14:23:00,
2013-04-18 08:28:00,24.1,14.7,30.20,SSE,158,0.2,1.8,67,0.00,,,0.00,WUHU216HW,2013-04-18 14:28:00,
2013-04-18 08:33:00,24.3,14.9,30.20,South,180,0.0,1.8,67,0.00,,,0.00,WUHU216HW,2013-04-18 14:33:00,
2013-04-18 08:38:00,24.7,14.9,30.19,SE,135,0.2,0.7,66,0.00,,,0.00,WUHU216HW,2013-04-18 14:38:00,
2013-04-18 08:43:00,25.2,15.4,30.20,SE,135,0.0,0.4,66,0.00,,,0.00,WUHU216HW,2013-04-18 14:43:00,
2013-04-18 08:48:00,25.7,15.6,30.20,NW,315,0.0,0.9,65,0.00,,,0.00,WUHU216HW,2013-04-18 14:48:00,
2013-04-18 08:53:00,26.3,16.0,30.20,NW,315,0.0,0.9,65,0.00,,,0.00,WUHU216HW,2013-04-18 14:53:00,
2013-04-18 08:58:00,26.8,16.2,30.20,NW,315,0.0,0.4,64,0.00,,,0.00,WUHU216HW,2013-04-18 14:58:00,
2013-04-18 09:03:00,27.5,16.6,30.20,WSW,248,1.8,1.8,63,0.00,,,0.00,WUHU216HW,2013-04-18 15:03:00,
2013-04-18 09:08:00,27.7,16.4,30.20,WSW,248,1.1,1.8,62,0.00,,,0.00,WUHU216HW,2013-04-18 15:08:00,
2013-04-18 09:13:00,28.1,16.7,30.20,WSW,248,0.0,1.3,62,0.00,,,0.00,WUHU216HW,2013-04-18 15:13:00,
2013-04-18 09:18:00,28.6,17.3,30.20,SW,225,0.0,1.1,62,0.00,,,0.00,WUHU216HW,2013-04-18 15:18:00,
2013-04-18 09:23:00,29.0,17.2,30.19,WNW,293,0.0,1.1,61,0.00,,,0.00,WUHU216HW,2013-04-18 15:23:00,
2013-04-18 09:28:00,29.5,17.7,30.19,NNE,23,0.4,0.9,61,0.00,,,0.00,WUHU216HW,2013-04-18 15:28:00,
2013-04-18 09:33:00,30.2,18.0,30.19,WSW,248,1.1,1.1,60,0.00,,,0.00,WUHU216HW,2013-04-18 15:33:00,
2013-04-18 09:38:00,30.8,18.1,30.19,East,90,0.2,2.2,59,0.00,,,0.00,WUHU216HW,2013-04-18 15:38:00,
2013-04-18 09:43:00,31.5,18.8,30.19,WSW,248,0.0,2.2,59,0.00,,,0.00,WUHU216HW,2013-04-18 15:43:00,
2013-04-18 09:48:00,32.0,18.9,30.19,SE,135,0.7,1.6,58,0.00,,,0.00,WUHU216HW,2013-04-18 15:48:00,
2013-04-18 09:53:00,32.8,19.6,30.19,South,180,2.2,3.4,58,0.00,,,0.00,WUHU216HW,2013-04-18 15:53:00,
2013-04-18 09:58:00,33.7,19.5,30.18,East,90,1.6,3.4,56,0.00,,,0.00,WUHU216HW,2013-04-18 15:58:00,
2013-04-18 10:03:00,34.2,20.1,30.18,ESE,113,3.4,3.4,56,0.00,,,0.00,WUHU216HW,2013-04-18 16:03:00,
2013-04-18 10:08:00,34.9,20.3,30.19,ESE,113,0.0,3.4,55,0.00,,,0.00,WUHU216HW,2013-04-18 16:08:00,
2013-04-18 10:13:00,35.8,20.3,30.18,SE,135,0.0,3.4,53,0.00,,,0.00,WUHU216HW,2013-04-18 16:13:00,
2013-04-18 10:18:00,36.4,20.9,30.18,WSW,248,1.8,3.4,53,0.00,,,0.00,WUHU216HW,2013-04-18 16:18:00,
2013-04-18 10:24:00,36.7,18.3,30.18,SSW,203,2.2,5.1,47,0.00,,,0.00,WUHU216HW,2013-04-18 16:24:00,
2013-04-18 10:29:00,37.4,20.0,30.18,SSE,158,2.7,5.1,49,0.00,,,0.00,WUHU216HW,2013-04-18 16:29:00,
2013-04-18 10:34:00,38.3,20.3,30.18,SSW,203,2.0,4.7,48,0.00,,,0.00,WUHU216HW,2013-04-18 16:34:00,
2013-04-18 10:39:00,38.9,18.7,30.18,SSE,158,5.6,7.4,44,0.00,,,0.00,WUHU216HW,2013-04-18 16:39:00,
2013-04-18 10:44:00,39.4,18.6,30.18,South,180,7.6,7.6,43,0.00,,,0.00,WUHU216HW,2013-04-18 16:44:00,
2013-04-18 10:49:00,40.0,18.6,30.18,South,180,4.7,8.1,42,0.00,,,0.00,WUHU216HW,2013-04-18 16:49:00,
2013-04-18 10:54:00,40.3,17.3,30.18,SSW,203,7.4,8.1,39,0.00,,,0.00,WUHU216HW,2013-04-18 16:54:00,
2013-04-18 10:59:00,40.7,18.2,30.18,SSE,158,8.3,9.2,40,0.00,,,0.00,WUHU216HW,2013-04-18 16:59:00,
2013-04-18 11:04:00,41.2,17.4,30.18,SSW,203,6.9,9.2,38,0.00,,,0.00,WUHU216HW,2013-04-18 17:04:00,
2013-04-18 11:09:00,41.6,17.1,30.18,SSE,158,6.3,8.3,37,0.00,,,0.00,WUHU216HW,2013-04-18 17:09:00,
2013-04-18 11:14:00,41.9,16.8,30.18,SSE,158,6.7,8.3,36,0.00,,,0.00,WUHU216HW,2013-04-18 17:14:00,
2013-04-18 11:19:00,42.3,17.0,30.18,SSE,158,4.7,8.5,36,0.00,,,0.00,WUHU216HW,2013-04-18 17:19:00,
2013-04-18 11:24:00,42.8,16.8,30.18,SE,135,8.5,8.5,35,0.00,,,0.00,WUHU216HW,2013-04-18 17:24:00,
2013-04-18 11:29:00,42.8,16.8,30.18,SE,135,6.9,8.5,35,0.00,,,0.00,WUHU216HW,2013-04-18 17:29:00,
2013-04-18 11:34:00,43.2,17.2,30.18,South,180,4.7,8.7,35,0.00,,,0.00,WUHU216HW,2013-04-18 17:34:00,
2013-04-18 11:39:00,43.9,17.8,30.17,SSE,158,5.4,8.7,35,0.00,,,0.00,WUHU216HW,2013-04-18 17:39:00,
2013-04-18 11:44:00,44.5,18.3,30.17,SSW,203,4.7,7.8,35,0.00,,,0.00,WUHU216HW,2013-04-18 17:44:00,
2013-04-18 11:49:00,45.0,18.8,30.17,NNW,338,1.8,7.8,35,0.00,,,0.00,WUHU216HW,2013-04-18 17:49:00,
2013-04-18 11:54:00,45.5,19.3,30.17,SSW,203,2.7,5.8,35,0.00,,,0.00,WUHU216HW,2013-04-18 17:54:00,
2013-04-18 11:59:00,46.4,20.1,30.17,South,180,3.6,7.2,35,0.00,,,0.00,WUHU216HW,2013-04-18 17:59:00,
2013-04-18 12:04:00,47.2,19.4,30.17,SSW,203,4.3,8.9,33,0.00,,,0.00,WUHU216HW,2013-04-18 18:04:00,
2013-04-18 12:09:00,47.3,18.9,30.17,SW,225,4.7,8.9,32,0.00,,,0.00,WUHU216HW,2013-04-18 18:09:00,
2013-04-18 12:14:00,47.0,19.3,30.17,South,180,3.6,6.9,33,0.00,,,0.00,WUHU216HW,2013-04-18 18:14:00,